Vorticity
nan nan nan nan nan nan nan nan nan nan nan nan nan nan nan nan nan nan nan nan nan nan nan nan nan nan nan nan nan nan nan nan nan nan nan nan nan nan nan nan nan nan nan nan nan nan nan
nan 7 7 7 7 7 7 7 7 7 7 8 8 8 8 7 9 9 7 5 4 4 4 4 5 13 10 3 14 4 3 5 7 6 7 7 7 7 12 9 8 9 9 5 6 7 nan
nan 7 7 7 7 7 8 7 7 8 8 7 7 8 8 9 10 8 5 5 5 5 5 6 8 13 10 10 2 4 2 4 7 7 6 7 6 5 9 10 8 4 10 12 18 13 nan
nan 7 6 7 7 7 8 7 8 8 8 7 8 8 9 13 11 8 7 6 5 5 8 11 8 7 6 15 7 11 10 12 12 8 7 8 6 9 7 8 6 9 7 10 12 14 nan
nan 8 8 8 10 8 8 7 7 7 7 8 10 13 15 14 10 7 4 5 12 15 14 10 7 6 7 9 12 14 14 11 16 12 9 8 7 8 10 5 7 6 4 7 3 13 nan
nan 12 13 13 11 9 9 9 10 14 14 16 18 17 12 7 4 3 7 13 15 14 8 3 7 11 15 5 8 10 13 9 10 10 7 5 5 6 5 6 -0 4 11 5 5 9 nan
nan 17 14 14 8 9 9 12 15 18 19 18 14 10 9 6 4 5 8 10 9 8 6 2 -2 0 3 14 9 7 9 10 7 2 6 7 5 5 7 2 4 8 6 4 6 1 nan
nan 12 11 11 13 14 13 11 10 9 12 10 10 6 4 5 7 8 9 5 4 10 18 14 3 3 -3 4 9 7 8 8 1 2 4 1 5 7 6 13 12 7 6 5 5 6 nan
nan 13 12 8 8 8 8 5 5 8 9 7 7 5 4 4 6 9 9 7 6 12 12 19 17 13 18 8 6 7 4 4 6 9 3 -2 1 8 10 8 9 5 6 7 5 9 nan
nan 7 12 13 7 3 4 6 7 5 5 6 6 5 4 4 7 9 11 6 8 10 11 17 13 16 17 8 16 22 9 7 4 11 9 12 14 7 6 5 7 9 16 10 10 8 nan
nan 6 6 7 16 17 7 6 6 6 6 6 6 5 7 5 7 7 8 7 10 7 10 13 10 10 15 3 8 23 18 16 10 6 4 6 17 17 9 11 5 11 13 15 11 5 nan
nan 10 10 8 7 17 18 11 8 7 7 7 7 6 2 5 7 8 6 11 14 10 14 7 8 8 7 6 4 8 12 10 19 18 3 0 -0 7 13 16 11 11 10 7 9 13 nan
nan 14 12 10 7 8 17 21 16 9 8 7 8 6 0 3 9 9 9 12 9 8 9 10 7 9 6 11 9 6 10 6 5 13 14 16 11 5 8 3 14 9 2 7 12 7 nan
nan 10 11 13 13 9 7 15 28 22 9 7 8 2 3 7 9 7 9 12 7 8 5 1 13 11 10 7 9 9 6 9 5 0 12 17 23 20 12 6 4 7 -2 -1 4 0 nan
nan 7 7 8 10 11 9 6 10 17 24 16 2 1 10 12 9 8 8 8 10 5 11 8 7 12 12 7 8 12 8 10 18 14 1 10 8 10 19 24 8 10 13 0 4 11 nan
nan 6 7 8 8 8 9 9 6 4 16 17 5 8 10 12 10 9 8 9 6 11 9 10 7 9 11 13 12 11 9 11 12 15 9 4 10 12 11 15 12 7 13 20 11 14 nan
nan 8 7 7 7 8 10 11 10 8 6 8 10 8 10 9 8 12 11 12 11 7 7 8 10 6 9 8 12 9 8 7 10 15 17 11 12 5 2 12 15 18 7 6 10 7 nan
nan 7 7 8 8 8 8 9 12 11 0 3 13 8 10 10 6 9 11 7 11 14 7 4 7 9 9 9 11 10 4 5 14 14 13 10 13 7 7 7 14 12 16 16 13 12 nan
nan 8 8 8 8 7 8 9 9 9 10 9 6 6 9 12 12 11 10 6 7 12 7 7 9 8 7 4 8 11 3 1 10 15 12 12 15 16 15 6 6 5 8 15 15 18 nan
nan 7 8 8 8 7 7 8 8 11 12 9 10 8 8 10 7 12 15 12 10 8 6 7 11 10 6 3 3 4 6 1 1 8 7 9 7 9 5 8 11 7 2 6 9 8 nan
nan 7 7 7 7 7 8 8 7 12 10 5 10 9 11 13 10 7 10 18 13 8 14 9 8 10 5 5 5 5 6 5 3 3 -0 5 8 9 6 5 2 -1 4 3 1 2 nan
nan 6 7 7 7 7 7 7 8 10 12 11 10 9 9 12 12 8 5 0 3 15 23 11 8 13 10 7 8 13 14 4 8 9 6 2 9 11 9 13 9 5 7 6 7 8 nan
nan 7 7 8 6 8 8 7 7 6 7 13 9 10 13 10 9 9 5 7 9 11 8 11 14 14 24 16 5 8 12 14 14 12 11 6 7 9 10 11 9 14 21 13 12 13 nan
nan 7 6 7 8 7 7 8 9 7 5 6 10 10 10 9 8 7 8 8 10 11 5 5 13 15 5 14 18 15 17 18 8 7 5 9 5 2 9 10 6 3 9 19 20 14 nan
nan 8 9 8 8 8 9 7 8 10 6 3 9 10 9 10 12 11 7 5 6 5 4 5 8 7 6 9 14 16 18 20 18 13 7 4 4 7 10 6 4 8 16 13 12 9 nan
nan 9 10 11 10 8 8 9 9 9 7 6 8 7 7 11 12 10 12 12 10 11 13 14 12 13 10 7 11 11 10 13 14 17 20 13 9 6 8 6 9 9 12 15 10 15 nan
nan 9 9 8 8 9 11 10 8 10 7 6 11 10 5 10 8 10 9 9 11 9 9 15 21 22 8 5 11 13 10 11 10 8 17 18 14 10 5 6 6 19 15 10 5 14 nan
nan 9 9 10 11 10 9 9 9 9 8 7 8 12 8 7 12 14 9 7 4 4 7 6 9 11 12 8 10 12 17 16 10 12 11 8 9 12 11 12 15 20 16 3 8 9 nan
nan nan nan nan nan nan nan nan nan nan nan nan nan nan nan nan nan nan nan nan nan nan nan nan nan nan nan nan nan nan nan nan nan nan nan nan nan nan nan nan nan nan nan nan nan nan nan
CAPE
0 0 0 0 0 0 0 0 0 0 0 0 0 0 0 0 1 0 0 0 0 0 0 0 0 0 0 0 0 0 0 0 0 0 0 0 0 0 0 0 0 0 0 0 0 0 0
0 0 0 0 0 0 0 0 0 0 0 0 0 0 0 0 0 0 0 0 0 0 0 0 0 0 0 0 0 0 0 0 0 0 0 0 0 0 0 0 0 0 0 0 0 0 0
2 0 0 0 0 0 0 0 0 0 0 0 0 0 0 0 0 0 0 0 0 0 0 0 0 0 0 0 0 0 0 0 0 0 0 0 0 0 0 0 0 0 0 0 0 0 0
1 2 1 0 0 0 0 0 0 0 0 0 0 0 0 0 0 0 0 0 0 0 0 0 0 0 0 0 0 0 0 0 0 0 0 0 0 0 0 0 0 0 0 0 0 0 0
2 18 17 3 7 12 4 26 10 9 1 0 0 0 0 0 0 0 0 0 0 0 0 0 0 0 0 0 0 0 0 0 0 0 0 0 0 0 0 0 0 0 0 0 0 0 0
62 65 52 14 0 1 0 2 5 7 8 5 0 0 0 0 0 0 0 0 0 0 0 0 0 0 0 0 0 0 0 0 0 0 0 0 0 0 0 0 0 0 0 0 0 0 0
33 9 13 4 0 0 1 2 0 0 0 0 0 1 0 0 0 0 0 0 0 0 0 0 0 0 0 0 0 0 0 0 0 0 0 0 0 0 0 0 0 0 0 0 0 0 0
5 5 6 4 4 4 8 2 1 1 2 3 3 3 2 0 0 0 0 0 0 0 0 0 0 0 0 0 0 0 0 0 0 0 0 0 0 0 0 0 0 0 0 0 0 0 0
9 13 13 10 8 5 1 2 3 5 5 5 1 0 0 0 0 0 0 0 0 0 0 0 0 0 0 0 0 0 0 0 0 0 0 0 0 0 0 0 0 0 0 0 0 0 0
1 2 7 37 34 16 13 3 3 3 2 4 2 0 0 0 0 0 0 0 0 0 0 0 0 0 0 0 0 0 0 0 0 0 0 0 0 0 0 0 0 0 0 0 0 0 0
6 0 3 10 3 32 28 19 4 4 3 2 2 0 0 0 0 0 0 0 0 0 2 0 0 0 0 0 0 0 0 0 0 0 0 0 0 0 0 0 0 0 0 0 0 0 0
28 28 40 16 2 1 41 31 7 8 3 5 3 1 0 0 0 0 0 0 0 39 8 0 0 0 0 0 0 0 0 0 0 0 0 0 0 0 0 0 0 0 0 0 0 0 0
56 55 49 12 2 5 9 2 6 1 2 3 2 1 0 0 0 0 0 0 7 51 0 0 0 0 0 0 0 0 0 0 0 0 0 0 0 0 0 0 0 0 0 0 0 0 0
19 26 34 40 26 4 2 1 1 1 2 1 0 3 1 0 0 0 0 0 16 0 2 0 0 0 0 0 0 0 0 0 0 0 0 0 0 0 0 0 0 0 0 3 1 8 0
1 0 0 0 0 4 9 6 4 2 1 1 1 12 9 0 0 0 0 4 39 26 0 0 0 0 0 0 0 0 0 0 0 0 0 0 0 0 0 0 0 0 0 0 0 0 0
2 0 0 0 0 0 0 2 1 1 2 1 3 6 7 0 0 1 7 16 11 0 0 0 0 0 0 0 0 0 0 0 0 0 0 0 0 0 0 0 0 0 0 0 0 0 0
9 7 0 0 0 0 0 0 2 11 1 0 1 5 6 0 5 6 1 12 3 0 0 0 0 0 0 0 0 0 1 0 0 0 0 0 0 0 0 0 0 0 0 0 0 3 4
1 0 1 0 0 0 0 8 2 32 3 0 1 0 5 3 0 3 10 1 0 0 0 0 0 0 0 0 0 0 0 0 0 0 0 0 0 0 0 0 0 0 0 0 6 0 2
3 1 0 0 0 0 0 0 0 3 11 17 14 6 1 27 4 22 8 4 1 0 0 0 0 0 0 0 0 0 0 0 0 0 0 0 6 20 4 0 0 0 1 2 0 0 1
0 1 9 6 3 3 2 0 0 1 0 21 27 50 8 8 4 19 17 26 35 0 1 1 0 5 3 4 0 0 2 0 0 0 0 0 0 5 12 18 7 11 9 22 18 19 3
0 0 0 1 4 2 1 4 0 0 19 56 31 56 44 55 21 24 13 26 43 13 3 2 3 2 9 27 26 24 3 7 0 2 1 1 8 2 2 2 5 9 0 2 12 5 13
7 1 0 0 0 0 1 0 10 0 21 86 19 45 19 85 34 67 28 30 4 16 0 4 9 4 6 17 17 44 36 32 9 3 9 32 8 8 9 3 12 13 4 1 0 0 17
7 7 6 10 1 3 2 0 2 19 8 34 41 16 34 51 83 74 31 12 8 6 1 19 19 19 7 4 10 4 0 2 16 12 25 35 28 28 0 1 9 5 0 0 0 0 3
21 22 13 6 12 5 0 8 9 22 31 34 35 27 39 11 31 22 9 11 30 44 34 18 18 39 9 1 0 0 0 3 6 7 2 14 33 42 17 25 50 0 0 0 1 1 2
8 6 6 8 9 11 17 3 7 27 37 55 57 42 40 14 1 0 2 8 8 6 5 16 1 4 15 10 52 28 24 16 9 4 4 0 11 30 49 26 21 1 0 1 5 8 2
15 25 39 47 31 29 30 28 24 12 43 72 60 55 52 23 6 1 0 0 8 5 8 0 1 0 46 66 88 37 41 27 16 15 1 4 1 133 17 29 30 0 0 0 6 0 0
20 22 18 16 25 32 43 34 20 24 38 78 48 57 59 52 11 7 9 12 13 29 33 25 69 94 22 63 70 43 47 19 30 12 0 12 69 100 61 66 39 0 8 0 4 2 0
30 32 37 42 49 49 53 58 39 17 39 81 69 63 61 34 16 11 10 9 20 41 69 18 42 11 2 33 58 130 110 79 87 35 4 25 82 154 167 150 44 0 0 0 23 9 4
56 44 38 36 38 44 61 73 54 22 33 50 81 74 71 55 22 27 13 20 8 10 64 65 54 23 73 99 52 131 88 132 61 100 5 234 72 235 88 111 12 8 8 37 56 0 29